sat.trackr.live / text

‹ back to catalog

STARLINK-30266

NORAD 57529 · 2023-115J

PAYLOAD ACTIVE UNKNOWN

§ Identity

Operator
Country
US
Launch date
2023-08-08
Launch site
AFWTR
Launch vehicle
Mass (kg)
RCS (m²)

Purposes: comms

External: N2YO · Heavens-Above · Gunter

§ Orbital elements

Epoch: 2026-09-20T22:25:00.772608Z

Period
94.27 min
Inclination
43.0065°
Eccentricity
0.0001828
Mean motion
15.27576943 rev/d
Perigee alt
481.8 km
Apogee alt
484.3 km
Semi-major
6,861.2 km
B*
1.1313e-5
RAAN
338.7719°
Arg perigee
269.0916°
Mean anomaly
90.9726°
Rev number
17,221

§ Raw data

STARLINK-302661 57529U 23115J   26263.93403672  .00000049  00000+0  11313-4 0  99982 57529  43.0065 338.7719 0001828 269.0916  90.9726 15.27576943172213

JSON: /api/v1/satellites/57529 · /tle

For live sub-satellite position, see the globe view (requires WebGL).

§ Visibility from observer

Set your observer location to see the next 7 days of passes ≥ 10°. The values pass through the URL so the page stays shareable.

No JS? Fill the form by hand. The geolocation button needs JavaScript.